Погода в Воложине

Беларусь     54°05′25″N   26°31′36″E
темп.,
°C
ветер,
м/с
пор.,
м/с
влажн.,
%
обл.,
%
осадки,
мм/ч
давл.,
гПа
погр.,
м
18 мая, вт
вт1800:00+12ссв2596100 0.0 1003150
03:00+12с2697100 0.2 1002245
06:00+12ссз2699100 1.3 1001279
09:00+12ссз2598100 2.8 1001319
12:00+13сз2496100 0.2 1002376
15:00+13сз3495100 0.3 1002371
18:00+12ссз3595100 0.1 1002489
21:00+10сз4795100 0.1 1002376
19 мая, ср
ср1900:00+10сз3797100 0.0 1002383
03:00+9сз3797100 0.1 1002414
06:00+9сз3997100 0.6 1001562
09:00+9зсз3897100 1.0 1003558
12:00+10зсз5993100 0.1 1004624
15:00+9сз51197100 5.1 1005670
18:00+10сз31095100 1.6 1007603
21:00+9сз2796100 5.1 1008380
20 мая, чт
чт2000:00+9зсз2596100 0.0 1008168
03:00+9зсз259599 0.0 1008146
06:00+8зсз2798100 0.0 1009211
09:00+11ссз5985100 0.0 1009617
12:00+14ссз6967100 0.1 10091311
15:00+15сз6964100 0.6 10091436
18:00+15сз596455 0.1 10091393
21:00+12зсз411816 0.3 1011389
21 мая, пт
пт2100:00+9зсз411850 0.0 1013343
03:00+6зсз3696100 0.0 1014150
06:00+5з279598 0.0 1015253
09:00+10з46675 0.0 1016609
12:00+13зсз56535 0.0 10161355
15:00+15з454817 0.0 10161889
18:00+15зсз354933 0.0 10151941
21:00+11ююз11701 0.0 101611
22 мая, сб
сб2200:00+8ююв22835 0.0 101612
03:00+7ююв3581100 0.0 101673
06:00+8ююв31080100 0.0 1015247
09:00+13ююв61168100 0.0 1014547
12:00+17ю685676 0.0 10141342
15:00+19ю68505 0.0 10121718
18:00+18ю6958100 0.0 10111748
21:00+15ююв51366100 0.0 1010561